Year,Month,Day,Hour,Minute,Value (Times are PST for temperature in C)
2018,09,30,00,00,13.20
2018,09,30,00,01,13.20
2018,09,30,00,02,13.20
2018,09,30,00,03,13.20
2018,09,30,00,04,13.20
2018,09,30,00,05,13.20
2018,09,30,00,06,13.20
2018,09,30,00,07,13.20
2018,09,30,00,08,13.20
2018,09,30,00,09,13.20
2018,09,30,00,10,13.20
2018,09,30,00,11,13.20
2018,09,30,00,12,13.20
2018,09,30,00,13,13.20
2018,09,30,00,14,13.20
2018,09,30,00,15,13.10
2018,09,30,00,16,13.10
2018,09,30,00,17,13.10
2018,09,30,00,18,13.10
2018,09,30,00,19,13.00
2018,09,30,00,20,13.00
2018,09,30,00,21,12.90
2018,09,30,00,22,12.90
2018,09,30,00,23,12.90
2018,09,30,00,24,12.90
2018,09,30,00,25,12.90
2018,09,30,00,26,12.90
2018,09,30,00,27,12.90
2018,09,30,00,28,12.80
2018,09,30,00,29,12.80
2018,09,30,00,30,12.80
2018,09,30,00,31,12.80
2018,09,30,00,32,12.80
2018,09,30,00,33,12.80
2018,09,30,00,34,12.80
2018,09,30,00,35,12.80
2018,09,30,00,36,12.80
2018,09,30,00,37,12.80
2018,09,30,00,38,12.80
2018,09,30,00,39,12.80
2018,09,30,00,40,12.80
2018,09,30,00,41,12.70
2018,09,30,00,42,12.70
2018,09,30,00,43,12.70
2018,09,30,00,44,12.80
2018,09,30,00,45,12.80
2018,09,30,00,46,12.80
2018,09,30,00,47,12.80
2018,09,30,00,48,12.80
2018,09,30,00,49,12.80
2018,09,30,00,50,12.80
2018,09,30,00,51,12.80
2018,09,30,00,52,12.70
2018,09,30,00,53,12.70
2018,09,30,00,54,12.70
2018,09,30,00,55,12.70
2018,09,30,00,56,12.70
2018,09,30,00,57,12.70
2018,09,30,00,58,12.70
2018,09,30,00,59,12.70
2018,09,30,01,00,12.70
2018,09,30,01,01,12.70
2018,09,30,01,02,12.70
2018,09,30,01,03,12.70
2018,09,30,01,04,12.70
2018,09,30,01,05,12.70
2018,09,30,01,06,12.70
2018,09,30,01,07,12.70
2018,09,30,01,08,12.70
2018,09,30,01,09,12.70
2018,09,30,01,10,12.70
2018,09,30,01,11,12.70
2018,09,30,01,12,12.70
2018,09,30,01,13,12.70
2018,09,30,01,14,12.70
2018,09,30,01,15,12.70
2018,09,30,01,16,12.70
2018,09,30,01,17,12.70
2018,09,30,01,18,12.70
2018,09,30,01,19,12.70
2018,09,30,01,20,12.60
2018,09,30,01,21,12.70
2018,09,30,01,22,12.70
2018,09,30,01,23,12.70
2018,09,30,01,24,12.60
2018,09,30,01,25,12.60
2018,09,30,01,26,12.60
2018,09,30,01,27,12.60
2018,09,30,01,28,12.60
2018,09,30,01,29,12.60
2018,09,30,01,30,12.60
2018,09,30,01,31,12.60
2018,09,30,01,32,12.60
2018,09,30,01,33,12.60
2018,09,30,01,34,12.60
2018,09,30,01,35,12.60
2018,09,30,01,36,12.70
2018,09,30,01,37,12.70
2018,09,30,01,38,12.70
2018,09,30,01,39,12.70
2018,09,30,01,40,12.70
2018,09,30,01,41,12.70
2018,09,30,01,42,12.70
2018,09,30,01,43,12.70
2018,09,30,01,44,12.70
2018,09,30,01,45,12.70
2018,09,30,01,46,12.70
2018,09,30,01,47,12.70
2018,09,30,01,48,12.70
2018,09,30,01,49,12.70
2018,09,30,01,50,12.70
2018,09,30,01,51,12.80
2018,09,30,01,52,12.80
2018,09,30,01,53,12.80
2018,09,30,01,54,12.80
2018,09,30,01,55,12.80
2018,09,30,01,56,12.80
2018,09,30,01,57,12.80
2018,09,30,01,58,12.80
2018,09,30,01,59,12.80
2018,09,30,02,00,12.90
2018,09,30,02,01,12.90
2018,09,30,02,02,12.90
2018,09,30,02,03,12.90
2018,09,30,02,04,12.90
2018,09,30,02,05,12.90
2018,09,30,02,06,12.90
2018,09,30,02,07,12.90
2018,09,30,02,08,12.90
2018,09,30,02,09,12.90
2018,09,30,02,10,12.80
2018,09,30,02,11,12.80
2018,09,30,02,12,12.80
2018,09,30,02,13,12.80
2018,09,30,02,14,12.80
2018,09,30,02,15,12.80
2018,09,30,02,16,12.80
2018,09,30,02,17,12.80
2018,09,30,02,18,12.80
2018,09,30,02,19,12.80
2018,09,30,02,20,12.80
2018,09,30,02,21,12.80
2018,09,30,02,22,12.80
2018,09,30,02,23,12.80
2018,09,30,02,24,12.80
2018,09,30,02,25,12.80
2018,09,30,02,26,12.80
2018,09,30,02,27,12.80
2018,09,30,02,28,12.80
2018,09,30,02,29,12.80
2018,09,30,02,30,12.80
2018,09,30,02,31,12.80
2018,09,30,02,32,12.80
2018,09,30,02,33,12.80
2018,09,30,02,34,12.80
2018,09,30,02,35,12.80
2018,09,30,02,36,12.80
2018,09,30,02,37,12.80
2018,09,30,02,38,12.80
2018,09,30,02,39,12.80
2018,09,30,02,40,12.80
2018,09,30,02,41,12.80
2018,09,30,02,42,12.80
2018,09,30,02,43,12.80
2018,09,30,02,44,12.80
2018,09,30,02,45,12.80
2018,09,30,02,46,12.80
2018,09,30,02,47,12.80
2018,09,30,02,48,12.80
2018,09,30,02,49,12.80
2018,09,30,02,50,12.80
2018,09,30,02,51,12.80
2018,09,30,02,52,12.80
2018,09,30,02,53,12.80
2018,09,30,02,54,12.80
2018,09,30,02,55,12.80
2018,09,30,02,56,12.80
2018,09,30,02,57,12.80
2018,09,30,02,58,12.80
2018,09,30,02,59,12.80
2018,09,30,03,00,12.80
2018,09,30,03,01,12.80
2018,09,30,03,02,12.80
2018,09,30,03,03,12.80
2018,09,30,03,04,12.80
2018,09,30,03,05,12.80
2018,09,30,03,06,12.80
2018,09,30,03,07,12.80
2018,09,30,03,08,12.80
2018,09,30,03,09,12.80
2018,09,30,03,10,12.70
2018,09,30,03,11,12.70
2018,09,30,03,12,12.70
2018,09,30,03,13,12.70
2018,09,30,03,14,12.70
2018,09,30,03,15,12.70
2018,09,30,03,16,12.70
2018,09,30,03,17,12.60
2018,09,30,03,18,12.60
2018,09,30,03,19,12.60
2018,09,30,03,20,12.50
2018,09,30,03,21,12.50
2018,09,30,03,22,12.50
2018,09,30,03,23,12.40
2018,09,30,03,24,12.40
2018,09,30,03,25,12.40
2018,09,30,03,26,12.40
2018,09,30,03,27,12.40
2018,09,30,03,28,12.40
2018,09,30,03,29,12.40
2018,09,30,03,30,12.30
2018,09,30,03,31,12.30
2018,09,30,03,32,12.30
2018,09,30,03,33,12.30
2018,09,30,03,34,12.30
2018,09,30,03,35,12.30
2018,09,30,03,36,12.30
2018,09,30,03,37,12.30
2018,09,30,03,38,12.30
2018,09,30,03,39,12.30
2018,09,30,03,40,12.30
2018,09,30,03,41,12.20
2018,09,30,03,42,12.20
2018,09,30,03,43,12.20
2018,09,30,03,44,12.20
2018,09,30,03,45,12.20
2018,09,30,03,46,12.20
2018,09,30,03,47,12.20
2018,09,30,03,48,12.20
2018,09,30,03,49,12.20
2018,09,30,03,50,12.20
2018,09,30,03,51,12.20
2018,09,30,03,52,12.20
2018,09,30,03,53,12.10
2018,09,30,03,54,12.10
2018,09,30,03,55,12.10
2018,09,30,03,56,12.10
2018,09,30,03,57,12.10
2018,09,30,03,58,12.10
2018,09,30,03,59,12.10
2018,09,30,04,00,12.10
2018,09,30,04,01,12.10
2018,09,30,04,02,12.10
2018,09,30,04,03,12.10
2018,09,30,04,04,12.10
2018,09,30,04,05,12.10
2018,09,30,04,06,12.10
2018,09,30,04,07,12.10
2018,09,30,04,08,12.10
2018,09,30,04,09,12.10
2018,09,30,04,10,12.10
2018,09,30,04,11,12.00
2018,09,30,04,12,12.00
2018,09,30,04,13,12.00
2018,09,30,04,14,12.00
2018,09,30,04,15,12.00
2018,09,30,04,16,12.00
2018,09,30,04,17,12.00
2018,09,30,04,18,12.00
2018,09,30,04,19,12.00
2018,09,30,04,20,12.00
2018,09,30,04,21,12.00
2018,09,30,04,22,12.00
2018,09,30,04,23,11.90
2018,09,30,04,24,11.90
2018,09,30,04,25,11.90
2018,09,30,04,26,11.90
2018,09,30,04,27,11.90
2018,09,30,04,28,11.90
2018,09,30,04,29,11.90
2018,09,30,04,30,11.90
2018,09,30,04,31,12.00
2018,09,30,04,32,11.90
2018,09,30,04,33,11.90
2018,09,30,04,34,11.90
2018,09,30,04,35,11.90
2018,09,30,04,36,11.90
2018,09,30,04,37,11.90
2018,09,30,04,38,11.90
2018,09,30,04,39,11.90
2018,09,30,04,40,11.90
2018,09,30,04,41,11.90
2018,09,30,04,42,11.90
2018,09,30,04,43,11.90
2018,09,30,04,44,11.90
2018,09,30,04,45,11.90
2018,09,30,04,46,11.90
2018,09,30,04,47,11.90
2018,09,30,04,48,11.90
2018,09,30,04,49,11.90
2018,09,30,04,50,11.90
2018,09,30,04,51,11.90
2018,09,30,04,52,11.90
2018,09,30,04,53,11.90
2018,09,30,04,54,11.90
2018,09,30,04,55,11.90
2018,09,30,04,56,11.90
2018,09,30,04,57,11.90
2018,09,30,04,58,11.90
2018,09,30,04,59,11.90
2018,09,30,05,00,11.90
2018,09,30,05,01,11.90
2018,09,30,05,02,11.90
2018,09,30,05,03,11.90
2018,09,30,05,04,11.90
2018,09,30,05,05,11.90
2018,09,30,05,06,11.90
2018,09,30,05,07,11.90
2018,09,30,05,08,11.90
2018,09,30,05,09,11.90
2018,09,30,05,10,11.90
2018,09,30,05,11,11.90
2018,09,30,09,25,12.30
2018,09,30,09,26,12.30
2018,09,30,09,27,12.40
2018,09,30,09,28,12.40
2018,09,30,09,29,12.40
2018,09,30,09,30,12.40
2018,09,30,09,31,12.40
2018,09,30,09,32,12.40
2018,09,30,09,33,12.40
2018,09,30,09,34,12.40
2018,09,30,09,35,12.40
2018,09,30,09,36,12.40
2018,09,30,09,37,12.40
2018,09,30,09,38,12.40
2018,09,30,09,39,12.40
2018,09,30,09,40,12.40
2018,09,30,09,41,12.30
2018,09,30,09,42,12.30
2018,09,30,09,43,12.30
2018,09,30,09,44,12.30
2018,09,30,09,45,12.30
2018,09,30,09,46,12.30
2018,09,30,09,47,12.30
2018,09,30,09,48,12.30
2018,09,30,09,49,12.30
2018,09,30,09,50,12.30
2018,09,30,09,51,12.30
2018,09,30,09,52,12.30
2018,09,30,09,53,12.30
2018,09,30,09,54,12.30
2018,09,30,09,55,12.30
2018,09,30,09,56,12.30
2018,09,30,09,57,12.30
2018,09,30,09,58,12.30
2018,09,30,09,59,12.30
2018,09,30,10,00,12.30
2018,09,30,10,01,12.30
2018,09,30,10,02,12.30
2018,09,30,10,03,12.30
2018,09,30,10,04,12.30
2018,09,30,10,05,12.30
2018,09,30,10,06,12.30
2018,09,30,10,07,12.40
2018,09,30,10,08,12.40
2018,09,30,10,09,12.40
2018,09,30,10,10,12.40
2018,09,30,10,11,12.40
2018,09,30,10,12,12.40
2018,09,30,10,13,12.40
2018,09,30,10,14,12.40
2018,09,30,10,15,12.40
2018,09,30,10,16,12.40
2018,09,30,10,17,12.40
2018,09,30,10,18,12.50
2018,09,30,10,19,12.50
2018,09,30,10,20,12.50
2018,09,30,10,21,12.50
2018,09,30,10,22,12.60
2018,09,30,10,23,12.60
2018,09,30,10,24,12.60
2018,09,30,10,25,12.60
2018,09,30,10,26,12.60
2018,09,30,10,27,12.60
2018,09,30,10,28,12.60
2018,09,30,10,29,12.60
2018,09,30,10,30,12.70
2018,09,30,10,31,12.70
2018,09,30,10,32,12.70
2018,09,30,10,33,12.70
2018,09,30,10,34,12.70
2018,09,30,10,35,12.70
2018,09,30,10,36,12.70
2018,09,30,10,37,12.70
2018,09,30,10,38,12.70
2018,09,30,10,39,12.70
2018,09,30,10,40,12.70
2018,09,30,10,41,12.70
2018,09,30,10,42,12.70
2018,09,30,10,43,12.70
2018,09,30,10,44,12.70
2018,09,30,10,45,12.70
2018,09,30,10,46,12.70
2018,09,30,10,47,12.70
2018,09,30,10,48,12.70
2018,09,30,10,49,12.70
2018,09,30,10,50,12.70
2018,09,30,10,51,12.70
2018,09,30,10,52,12.70
2018,09,30,10,53,12.70
2018,09,30,10,54,12.70
2018,09,30,10,55,12.70
2018,09,30,10,56,12.70
2018,09,30,10,57,12.70
2018,09,30,10,58,12.70
2018,09,30,10,59,12.70
2018,09,30,11,00,12.70
2018,09,30,11,01,12.70
2018,09,30,11,02,12.70
2018,09,30,11,03,12.60
2018,09,30,11,04,12.60
2018,09,30,11,05,12.60
2018,09,30,11,06,12.60
2018,09,30,11,07,12.60
2018,09,30,11,08,12.60
2018,09,30,11,09,12.60
2018,09,30,11,10,12.60
2018,09,30,11,11,12.70
2018,09,30,11,12,12.70
2018,09,30,11,13,12.70
2018,09,30,11,14,12.70
2018,09,30,11,15,12.80
2018,09,30,11,16,12.80
2018,09,30,11,17,12.80
2018,09,30,11,18,12.80
2018,09,30,11,19,12.80
2018,09,30,11,20,12.80
2018,09,30,11,21,12.80
2018,09,30,11,22,12.80
2018,09,30,11,23,12.80
2018,09,30,11,24,12.80
2018,09,30,11,25,12.80
2018,09,30,11,26,12.80
2018,09,30,11,27,12.80
2018,09,30,11,28,12.80
2018,09,30,11,29,12.80
2018,09,30,11,30,12.80
2018,09,30,11,31,12.80
2018,09,30,11,32,12.80
2018,09,30,11,33,12.80
2018,09,30,11,34,12.80
2018,09,30,11,35,12.80
2018,09,30,11,36,12.80
2018,09,30,11,37,12.80
2018,09,30,11,38,12.80
2018,09,30,11,39,12.80
2018,09,30,11,40,12.80
2018,09,30,11,41,12.80
2018,09,30,11,42,12.80
2018,09,30,11,43,12.80
2018,09,30,11,44,12.90
2018,09,30,11,45,12.90
2018,09,30,11,46,12.90
2018,09,30,11,47,12.90
2018,09,30,11,48,12.90
2018,09,30,11,49,12.90
2018,09,30,11,50,12.90
2018,09,30,11,51,12.90
2018,09,30,11,52,12.90
2018,09,30,11,53,12.90
2018,09,30,11,54,13.00
2018,09,30,11,55,12.90
2018,09,30,11,56,12.90
2018,09,30,11,57,13.00
2018,09,30,11,58,13.00
2018,09,30,11,59,13.00
2018,09,30,12,00,13.10
2018,09,30,12,01,13.10
2018,09,30,12,02,13.10
2018,09,30,12,03,13.10
2018,09,30,12,04,13.10
2018,09,30,12,05,13.10
2018,09,30,12,06,13.10
2018,09,30,12,07,13.10
2018,09,30,12,08,13.10
2018,09,30,12,09,13.20
2018,09,30,12,10,13.20
2018,09,30,12,11,13.20
2018,09,30,12,12,13.20
2018,09,30,12,13,13.20
2018,09,30,12,14,13.20
2018,09,30,12,15,13.20
2018,09,30,12,16,13.20
2018,09,30,12,17,13.20
2018,09,30,12,18,13.30
2018,09,30,12,19,13.30
2018,09,30,12,20,13.30
2018,09,30,12,21,13.20
2018,09,30,12,22,13.20
2018,09,30,12,23,13.20
2018,09,30,12,24,13.30
2018,09,30,12,25,13.30
2018,09,30,12,26,13.30
2018,09,30,12,27,13.30
2018,09,30,12,28,13.30
2018,09,30,12,29,13.30
2018,09,30,12,30,13.30
2018,09,30,12,31,13.30
2018,09,30,12,32,13.30
2018,09,30,12,33,13.30
2018,09,30,12,34,13.40
2018,09,30,12,35,13.40
2018,09,30,12,36,13.40
2018,09,30,12,37,13.40
2018,09,30,12,38,13.40
2018,09,30,12,39,13.40
2018,09,30,12,40,13.40
2018,09,30,12,41,13.40
2018,09,30,12,42,13.40
2018,09,30,12,43,13.40
2018,09,30,12,44,13.40
2018,09,30,12,45,13.40
2018,09,30,12,46,13.40
2018,09,30,12,47,13.40
2018,09,30,12,48,13.40
2018,09,30,12,49,13.50
2018,09,30,12,50,13.50
2018,09,30,12,51,13.50
2018,09,30,12,52,13.50
2018,09,30,12,53,13.50
2018,09,30,12,54,13.50
2018,09,30,12,55,13.50
2018,09,30,12,56,13.50
2018,09,30,12,57,13.50
2018,09,30,12,58,13.60
2018,09,30,12,59,13.60
2018,09,30,13,00,13.60
2018,09,30,13,01,13.60
2018,09,30,13,02,13.60
2018,09,30,13,03,13.60
2018,09,30,13,04,13.70
2018,09,30,13,05,13.70
2018,09,30,13,06,13.60
2018,09,30,13,07,13.60
2018,09,30,13,08,13.60
2018,09,30,13,09,13.60
2018,09,30,13,10,13.60
2018,09,30,13,11,13.60
2018,09,30,13,12,13.60
2018,09,30,13,13,13.60
2018,09,30,13,14,13.50
2018,09,30,13,15,13.50
2018,09,30,13,16,13.40
2018,09,30,13,17,13.40
2018,09,30,13,18,13.40
2018,09,30,13,19,13.40
2018,09,30,13,20,13.40
2018,09,30,13,21,13.40
2018,09,30,13,22,13.40
2018,09,30,13,23,13.40
2018,09,30,13,24,13.40
2018,09,30,13,25,13.40
2018,09,30,13,26,13.40
2018,09,30,13,27,13.50
2018,09,30,13,28,13.50
2018,09,30,13,29,13.50
2018,09,30,13,30,13.50
2018,09,30,13,31,13.50
2018,09,30,13,32,13.60
2018,09,30,13,33,13.60
2018,09,30,13,34,13.60
2018,09,30,13,35,13.60
2018,09,30,13,36,13.60
2018,09,30,13,37,13.60
2018,09,30,13,38,13.60
2018,09,30,13,39,13.60
2018,09,30,13,40,13.60
2018,09,30,13,41,13.70
2018,09,30,13,42,13.70
2018,09,30,13,43,13.70
2018,09,30,13,44,13.70
2018,09,30,13,45,13.80
2018,09,30,13,46,13.80
2018,09,30,13,47,13.80
2018,09,30,13,48,13.80
2018,09,30,13,49,13.80
2018,09,30,13,50,13.80
2018,09,30,13,51,13.80
2018,09,30,13,52,13.80
2018,09,30,13,53,13.80
2018,09,30,13,54,13.80
2018,09,30,13,55,13.80
2018,09,30,13,56,13.80
2018,09,30,13,57,13.80
2018,09,30,13,58,13.80
2018,09,30,13,59,13.80
2018,09,30,14,00,13.80
2018,09,30,14,01,13.80
2018,09,30,14,02,13.80
2018,09,30,14,03,13.80
2018,09,30,14,04,13.80
2018,09,30,14,05,13.80
2018,09,30,14,06,13.90
2018,09,30,14,07,13.90
2018,09,30,14,08,13.80
2018,09,30,14,09,13.80
2018,09,30,14,10,13.80
2018,09,30,14,11,13.80
2018,09,30,14,12,13.90
2018,09,30,14,13,13.90
2018,09,30,14,14,14.00
2018,09,30,14,15,14.00
2018,09,30,14,16,14.00
2018,09,30,14,17,14.00
2018,09,30,14,18,14.00
2018,09,30,14,19,14.00
2018,09,30,14,20,14.00
2018,09,30,14,21,14.00
2018,09,30,14,22,14.00
2018,09,30,14,23,14.10
2018,09,30,14,24,14.10
2018,09,30,14,25,14.10
2018,09,30,14,26,14.10
2018,09,30,14,27,14.20
2018,09,30,14,28,14.20
2018,09,30,14,29,14.20
2018,09,30,14,30,14.20
2018,09,30,14,31,14.30
2018,09,30,14,32,14.30
2018,09,30,14,33,14.30
2018,09,30,14,34,14.30
2018,09,30,14,35,14.30
2018,09,30,14,36,14.30
2018,09,30,14,37,14.30
2018,09,30,14,38,14.40
2018,09,30,14,39,14.40
2018,09,30,14,40,14.40
2018,09,30,14,41,14.40
2018,09,30,14,42,14.40
2018,09,30,14,43,14.40
2018,09,30,14,44,14.40
2018,09,30,14,45,14.50
2018,09,30,14,46,14.50
2018,09,30,14,47,14.60
2018,09,30,14,48,14.60
2018,09,30,14,49,14.60
2018,09,30,14,50,14.60
2018,09,30,14,51,14.70
2018,09,30,14,52,14.70
2018,09,30,14,53,14.70
2018,09,30,14,54,14.70
2018,09,30,14,55,14.70
2018,09,30,14,56,14.70
2018,09,30,14,57,14.80
2018,09,30,14,58,14.80
2018,09,30,14,59,14.80
2018,09,30,15,00,14.80
2018,09,30,15,01,14.80
2018,09,30,15,02,14.80
2018,09,30,15,03,14.90
2018,09,30,15,04,14.90
2018,09,30,15,05,14.90
2018,09,30,15,06,14.90
2018,09,30,15,07,14.90
2018,09,30,15,08,14.90
2018,09,30,15,09,14.90
2018,09,30,15,10,14.80
2018,09,30,15,11,14.80
2018,09,30,15,12,14.80
2018,09,30,15,13,14.90
2018,09,30,15,14,14.90
2018,09,30,15,15,14.90
2018,09,30,15,16,14.90
2018,09,30,15,17,15.00
2018,09,30,15,18,15.00
2018,09,30,15,19,15.00
2018,09,30,15,20,15.10
2018,09,30,15,21,15.00
2018,09,30,15,22,15.00
2018,09,30,15,23,15.00
2018,09,30,15,24,15.00
2018,09,30,15,25,15.00
2018,09,30,15,26,15.00
2018,09,30,15,27,15.00
2018,09,30,15,28,15.10
2018,09,30,15,29,15.10
2018,09,30,15,30,15.10
2018,09,30,15,31,15.00
2018,09,30,15,32,15.00
2018,09,30,15,33,15.00
2018,09,30,15,34,14.90
2018,09,30,15,35,14.90
2018,09,30,15,36,14.90
2018,09,30,15,37,14.90
2018,09,30,15,38,14.90
2018,09,30,15,39,14.90
2018,09,30,15,40,14.80
2018,09,30,15,41,14.80
2018,09,30,15,42,14.80
2018,09,30,15,43,14.80
2018,09,30,15,44,14.80
2018,09,30,15,45,14.70
2018,09,30,15,46,14.70
2018,09,30,15,47,14.70
2018,09,30,15,48,14.70
2018,09,30,15,49,14.70
2018,09,30,15,50,14.70
2018,09,30,15,51,14.70
2018,09,30,15,52,14.70
2018,09,30,15,53,14.70
2018,09,30,15,54,14.70
2018,09,30,15,55,14.80
2018,09,30,15,56,14.80
2018,09,30,15,57,14.80
2018,09,30,15,58,14.80
2018,09,30,15,59,14.80
2018,09,30,16,00,14.90
2018,09,30,16,01,14.90
2018,09,30,16,02,14.90
2018,09,30,16,03,14.80
2018,09,30,16,04,14.90
2018,09,30,16,05,15.00
2018,09,30,16,06,15.10
2018,09,30,16,07,15.20
2018,09,30,16,08,15.30
2018,09,30,16,09,15.40
2018,09,30,16,10,15.60
2018,09,30,16,11,15.70
2018,09,30,16,12,15.80
2018,09,30,16,13,15.80
2018,09,30,16,14,15.90
2018,09,30,16,15,15.90
2018,09,30,16,16,15.90
2018,09,30,16,17,16.00
2018,09,30,16,18,16.10
2018,09,30,16,19,16.10
2018,09,30,16,20,16.10
2018,09,30,16,21,16.10
2018,09,30,16,22,16.10
2018,09,30,16,23,16.20
2018,09,30,16,24,16.20
2018,09,30,16,25,16.20
2018,09,30,16,26,16.30
2018,09,30,16,27,16.30
2018,09,30,16,28,16.30
2018,09,30,16,29,16.40
2018,09,30,16,30,16.40
2018,09,30,16,31,16.40
2018,09,30,16,32,16.40
2018,09,30,16,33,16.50
2018,09,30,16,34,16.50
2018,09,30,16,35,16.50
2018,09,30,16,36,16.40
2018,09,30,16,37,16.30
2018,09,30,16,38,16.20
2018,09,30,16,39,16.20
2018,09,30,16,40,16.10
2018,09,30,16,41,16.10
2018,09,30,16,42,16.00
2018,09,30,16,43,15.90
2018,09,30,16,44,15.80
2018,09,30,16,45,15.80
2018,09,30,16,46,15.80
2018,09,30,16,47,15.80
2018,09,30,16,48,15.70
2018,09,30,16,49,15.60
2018,09,30,16,50,15.60
2018,09,30,16,51,15.50
2018,09,30,16,52,15.50
2018,09,30,16,53,15.50
2018,09,30,16,54,15.50
2018,09,30,16,55,15.40
2018,09,30,16,56,15.40
2018,09,30,16,57,15.40
2018,09,30,16,58,15.40
2018,09,30,16,59,15.40
2018,09,30,17,00,15.40
2018,09,30,17,01,15.40
2018,09,30,17,02,15.40
2018,09,30,17,03,15.40
2018,09,30,17,04,15.50
2018,09,30,17,05,15.50
2018,09,30,17,06,15.50
2018,09,30,17,07,15.50
2018,09,30,17,08,15.40
2018,09,30,17,09,15.40
2018,09,30,17,10,15.40
2018,09,30,17,11,15.40
2018,09,30,17,12,15.40
2018,09,30,17,13,15.30
2018,09,30,17,14,15.30
2018,09,30,17,15,15.30
2018,09,30,17,16,15.30
2018,09,30,17,17,15.30
2018,09,30,17,18,15.30
2018,09,30,17,19,15.30
2018,09,30,17,20,15.30
2018,09,30,17,21,15.30
2018,09,30,17,22,15.20
2018,09,30,17,23,15.20
2018,09,30,17,24,15.20
2018,09,30,17,25,15.10
2018,09,30,17,26,15.10
2018,09,30,17,27,15.10
2018,09,30,17,28,15.00
2018,09,30,17,29,14.90
2018,09,30,17,30,14.90
2018,09,30,17,31,15.00
2018,09,30,17,32,15.10
2018,09,30,17,33,15.10
2018,09,30,17,34,15.20
2018,09,30,17,35,15.20
2018,09,30,17,36,15.20
2018,09,30,17,37,15.20
2018,09,30,17,38,15.20
2018,09,30,17,39,15.20
2018,09,30,17,40,15.30
2018,09,30,17,41,15.30
2018,09,30,17,42,15.30
2018,09,30,17,43,15.30
2018,09,30,17,44,15.20
2018,09,30,17,45,15.20
2018,09,30,17,46,15.20
2018,09,30,17,47,15.20
2018,09,30,17,48,15.20
2018,09,30,17,49,15.20
2018,09,30,17,50,15.20
2018,09,30,17,51,15.20
2018,09,30,17,52,15.20
2018,09,30,17,53,15.20
2018,09,30,17,54,15.10
2018,09,30,17,55,15.10
2018,09,30,17,56,15.10
2018,09,30,17,57,15.10
2018,09,30,17,58,15.10
2018,09,30,17,59,15.10
2018,09,30,18,00,15.10
2018,09,30,18,01,15.10
2018,09,30,18,02,15.10
2018,09,30,18,03,15.10
2018,09,30,18,04,15.20
2018,09,30,18,05,15.20
2018,09,30,18,06,15.10
2018,09,30,18,07,15.10
2018,09,30,18,08,15.10
2018,09,30,18,09,15.00
2018,09,30,18,10,15.00
2018,09,30,18,11,15.00
2018,09,30,18,12,15.00
2018,09,30,18,13,14.90
2018,09,30,18,14,14.90
2018,09,30,18,15,14.80
2018,09,30,18,16,14.80
2018,09,30,18,17,14.80
2018,09,30,18,18,14.90
2018,09,30,18,19,14.90
2018,09,30,18,20,14.90
2018,09,30,18,21,14.90
2018,09,30,18,22,14.80
2018,09,30,18,23,14.80
2018,09,30,18,24,14.70
2018,09,30,18,25,14.70
2018,09,30,18,26,14.80
2018,09,30,18,27,14.80
2018,09,30,18,28,14.80
2018,09,30,18,29,14.80
2018,09,30,18,30,14.80
2018,09,30,18,31,14.80
2018,09,30,18,32,14.80
2018,09,30,18,33,14.70
2018,09,30,18,34,14.70
2018,09,30,18,35,14.70
2018,09,30,18,36,14.70
2018,09,30,18,37,14.70
2018,09,30,18,38,14.70
2018,09,30,18,39,14.60
2018,09,30,18,40,14.60
2018,09,30,18,41,14.50
2018,09,30,18,42,14.50
2018,09,30,18,43,14.40
2018,09,30,18,44,14.40
2018,09,30,18,45,14.40
2018,09,30,18,46,14.30
2018,09,30,18,47,14.30
2018,09,30,18,48,14.30
2018,09,30,18,49,14.20
2018,09,30,18,50,14.20
2018,09,30,18,51,14.20
2018,09,30,18,52,14.20
2018,09,30,18,53,14.10
2018,09,30,18,54,14.10
2018,09,30,18,55,14.10
2018,09,30,18,56,14.10
2018,09,30,18,57,14.00
2018,09,30,18,58,14.00
2018,09,30,18,59,14.00
2018,09,30,19,00,14.00
2018,09,30,19,01,13.90
2018,09,30,19,02,13.90
2018,09,30,19,03,13.90
2018,09,30,19,04,13.90
2018,09,30,19,05,13.90
2018,09,30,19,06,13.90
2018,09,30,19,07,13.90
2018,09,30,19,08,14.00
2018,09,30,19,09,14.00
2018,09,30,19,10,13.90
2018,09,30,19,11,13.90
2018,09,30,19,12,13.90
2018,09,30,19,13,13.90
2018,09,30,19,14,13.90
2018,09,30,19,15,13.90
2018,09,30,19,16,14.00
2018,09,30,19,17,14.00
2018,09,30,19,18,14.00
2018,09,30,19,19,13.90
2018,09,30,19,20,13.90
2018,09,30,19,21,13.90
2018,09,30,19,22,13.90
2018,09,30,19,23,13.80
2018,09,30,19,24,13.80
2018,09,30,19,25,13.80
2018,09,30,19,26,13.80
2018,09,30,19,27,13.80
2018,09,30,19,28,13.80
2018,09,30,19,29,13.70
2018,09,30,19,30,13.70
2018,09,30,19,31,13.70
2018,09,30,19,32,13.70
2018,09,30,19,33,13.60
2018,09,30,19,34,13.60
2018,09,30,19,35,13.60
2018,09,30,19,36,13.60
2018,09,30,19,37,13.60
2018,09,30,19,38,13.60
2018,09,30,19,39,13.60
2018,09,30,19,40,13.60
2018,09,30,19,41,13.60
2018,09,30,19,42,13.60
2018,09,30,19,43,13.50
2018,09,30,19,44,13.50
2018,09,30,19,45,13.50
2018,09,30,19,46,13.40
2018,09,30,19,47,13.40
2018,09,30,19,48,13.40
2018,09,30,19,49,13.40
2018,09,30,19,50,13.40
2018,09,30,19,51,13.30
2018,09,30,19,52,13.30
2018,09,30,19,53,13.30
2018,09,30,19,54,13.30
2018,09,30,19,55,13.30
2018,09,30,19,56,13.30
2018,09,30,19,57,13.30
2018,09,30,19,58,13.30
2018,09,30,19,59,13.20
2018,09,30,20,00,13.20
2018,09,30,20,01,13.20
2018,09,30,20,02,13.20
2018,09,30,20,03,13.10
2018,09,30,20,04,13.10
2018,09,30,20,05,13.10
2018,09,30,20,06,13.00
2018,09,30,20,07,13.00
2018,09,30,20,08,13.00
2018,09,30,20,09,12.90
2018,09,30,20,10,12.90
2018,09,30,20,11,12.90
2018,09,30,20,12,12.90
2018,09,30,20,13,12.90
2018,09,30,20,14,12.80
2018,09,30,20,15,12.80
2018,09,30,20,16,12.80
2018,09,30,20,17,12.80
2018,09,30,20,18,12.80
2018,09,30,20,19,12.80
2018,09,30,20,20,12.70
2018,09,30,20,21,12.70
2018,09,30,20,22,12.70
2018,09,30,20,23,12.70
2018,09,30,20,24,12.70
2018,09,30,20,25,12.60
2018,09,30,20,26,12.60
2018,09,30,20,27,12.60
2018,09,30,20,28,12.60
2018,09,30,20,29,12.60
2018,09,30,20,30,12.60
2018,09,30,20,31,12.60
2018,09,30,20,32,12.50
2018,09,30,20,33,12.50
2018,09,30,20,34,12.50
2018,09,30,20,35,12.50
2018,09,30,20,36,12.50
2018,09,30,20,37,12.50
2018,09,30,20,38,12.50
2018,09,30,20,39,12.50
2018,09,30,20,40,12.50
2018,09,30,20,41,12.40
2018,09,30,20,42,12.40
2018,09,30,20,43,12.40
2018,09,30,20,44,12.40
2018,09,30,20,45,12.40
2018,09,30,20,46,12.40
2018,09,30,20,47,12.40
2018,09,30,20,48,12.40
2018,09,30,20,49,12.40
2018,09,30,20,50,12.40
2018,09,30,20,51,12.40
2018,09,30,20,52,12.40
2018,09,30,20,53,12.40
2018,09,30,20,54,12.40
2018,09,30,20,55,12.40
2018,09,30,20,56,12.40
2018,09,30,20,57,12.40
2018,09,30,20,58,12.40
2018,09,30,20,59,12.30
2018,09,30,21,00,12.30
2018,09,30,21,01,12.30
2018,09,30,21,02,12.30
2018,09,30,21,03,12.30
2018,09,30,21,04,12.30
2018,09,30,21,05,12.30
2018,09,30,21,06,12.30
2018,09,30,21,07,12.30
2018,09,30,21,08,12.30
2018,09,30,21,09,12.30
2018,09,30,21,10,12.30
2018,09,30,21,11,12.30
2018,09,30,21,12,12.30
2018,09,30,21,13,12.30
2018,09,30,21,14,12.30
2018,09,30,21,15,12.30
2018,09,30,21,16,12.30
2018,09,30,21,17,12.30
2018,09,30,21,18,12.30
2018,09,30,21,19,12.20
2018,09,30,21,20,12.20
2018,09,30,21,21,12.20
2018,09,30,21,22,12.20
2018,09,30,21,23,12.20
2018,09,30,21,24,12.20
2018,09,30,21,25,12.20
2018,09,30,21,26,12.20
2018,09,30,21,27,12.20
2018,09,30,21,28,12.20
2018,09,30,21,29,12.20
2018,09,30,21,30,12.20
2018,09,30,21,31,12.20
2018,09,30,21,32,12.20